Theta_e
327 326 328 329 328 327 327 327 327 326 327 327 326 325 329 328 327 327 327 328 328 328 329 330 331 332 333 333 332 332 332 331 327 330 328 329 328 327 325 325 325 325 326 326
327 326 328 326 325 325 325 325 326 326 327 326 326 325 326 328 327 327 327 327 326 326 326 326 327 327 329 330 330 329 330 330 328 331 330 329 327 327 328 328 328 327 326 327
326 327 325 325 325 326 326 327 327 326 326 326 326 326 326 329 327 327 325 325 324 324 324 324 323 323 323 323 324 324 324 324 326 324 323 324 328 326 328 327 328 328 329 328
327 325 325 325 326 326 325 324 325 325 324 323 325 325 327 330 328 327 325 325 324 324 324 323 322 322 321 321 320 320 320 320 320 320 321 322 320 321 321 323 323 324 323 325
328 327 326 326 326 325 324 322 321 321 321 322 322 322 324 330 329 328 326 325 325 324 322 321 321 321 320 320 319 319 319 319 318 318 318 318 319 321 320 320 320 320 319 319
327 326 325 325 325 324 324 322 323 323 323 324 325 324 326 329 328 326 326 325 324 323 322 321 320 320 319 318 317 318 317 317 317 316 316 315 315 316 318 320 321 319 317 317
329 328 326 324 325 324 324 323 323 327 327 326 324 324 325 327 326 324 323 322 322 322 320 319 320 319 317 317 316 315 316 315 314 314 314 314 314 315 314 315 317 318 318 317
328 329 328 326 324 323 321 321 321 326 326 323 323 323 328 326 323 323 322 321 321 320 320 320 319 318 316 316 315 315 315 314 314 313 314 314 313 313 314 314 315 316 316 318
329 329 325 324 323 321 322 322 321 321 322 324 323 327 325 324 324 322 321 321 320 321 320 319 318 317 315 315 314 313 313 312 312 312 313 313 313 314 314 312 313 314 314 316
327 329 327 324 322 320 320 321 321 328 326 323 321 322 325 324 323 322 320 319 319 320 319 318 316 316 314 314 312 311 311 311 312 312 313 314 314 313 314 313 312 312 311 311
326 329 327 324 323 322 324 324 322 324 323 325 325 323 324 323 322 321 320 319 319 319 317 316 314 313 312 311 310 311 312 312 312 311 311 311 311 311 311 311 310 309 308 309
326 329 329 327 323 322 319 319 321 326 325 325 325 325 324 323 321 320 319 318 317 315 314 314 313 312 311 310 312 311 311 311 311 310 309 309 310 309 309 308 308 307 308 308
328 327 331 328 325 324 323 323 322 324 325 326 330 328 324 323 320 319 318 317 315 314 313 313 313 311 310 311 311 311 311 310 309 309 309 308 308 308 308 307 307 307 307 307
322 324 326 329 326 324 322 321 322 322 331 325 324 324 322 322 320 319 317 316 314 313 314 313 311 311 312 311 310 309 309 308 308 308 307 306 306 306 306 306 306 306 306 307
323 325 324 324 324 323 321 319 319 320 320 324 322 321 321 320 319 317 316 315 313 314 314 311 311 312 311 310 310 309 308 307 307 306 306 305 305 304 304 305 305 305 305 306
325 326 323 322 322 322 321 322 321 320 320 321 322 322 319 317 317 316 315 313 315 314 312 311 311 312 310 310 309 308 307 306 305 303 304 304 304 305 305 305 305 305 305 306
325 325 326 325 322 323 326 324 323 321 319 320 320 319 317 318 316 316 315 314 314 313 312 311 312 311 309 309 308 307 307 305 303 303 303 304 304 304 305 305 305 306 306 306
323 326 326 325 323 325 324 324 322 321 319 318 319 319 318 316 316 315 314 314 313 312 311 312 311 309 309 308 307 306 304 304 304 304 304 305 305 305 306 306 306 306 306 306
322 324 325 326 326 324 323 325 323 322 319 318 320 318 317 316 316 316 315 313 313 311 312 311 309 309 308 307 306 304 303 304 304 304 305 305 306 306 306 306 307 306 307 307
323 324 324 324 327 326 323 323 319 318 324 320 318 318 317 317 320 316 314 313 311 311 311 310 309 308 307 307 306 304 304 304 304 304 306 306 307 307 307 307 308 307 307 307
327 326 326 324 325 324 323 321 319 323 325 320 318 318 317 318 316 315 313 311 310 311 310 309 308 308 306 306 305 304 304 304 305 306 307 307 307 307 307 307 307 307 307 308
327 331 328 327 326 326 321 320 323 321 320 319 318 317 316 315 315 313 312 310 311 311 310 308 307 306 306 306 304 303 304 305 306 307 308 308 308 308 308 308 308 308 308 309
327 324 328 327 324 325 322 321 321 319 318 318 317 317 315 315 313 312 310 311 311 310 309 307 306 306 306 305 303 303 304 306 307 308 308 309 309 308 308 308 309 308 309 309
323 322 322 322 321 318 319 320 319 318 318 317 316 315 315 313 312 311 311 312 310 309 308 306 306 305 304 303 303 303 304 306 308 309 310 310 309 308 309 309 309 308 308 311
322 321 322 321 321 319 318 319 319 318 318 317 316 315 313 312 311 311 312 311 310 309 307 305 305 304 303 303 303 304 304 307 309 309 310 310 310 309 310 310 309 309 309 314
320 323 324 325 320 321 320 319 318 317 317 316 315 313 312 311 310 311 312 310 309 308 305 305 304 303 303 303 303 304 305 307 308 309 309 309 309 309 310 310 310 309 309 312
Wind_Speed
11 9 9 11 13 12 12 13 12 12 8 1 8 15 11 14 3 7 4 6 6 7 8 10 12 13 13 13 13 10 9 8 6 8 8 9 7 10 7 9 13 7 6 7
6 12 8 8 7 11 13 15 13 12 3 4 7 16 10 14 9 2 2 7 5 7 8 8 9 11 12 12 11 10 11 13 6 8 5 9 11 10 6 1 4 10 13 10
9 9 7 6 8 7 12 14 11 13 16 12 10 16 14 15 12 10 5 5 5 3 5 6 8 8 11 11 10 11 12 13 12 17 12 12 13 15 16 15 13 9 13 10
4 8 8 7 3 8 10 13 14 13 12 12 16 13 8 18 12 11 10 7 3 2 3 6 8 8 8 9 10 9 9 10 13 20 20 16 18 17 17 19 22 23 27 16
6 1 5 9 11 9 12 14 13 13 12 13 15 10 6 16 12 14 14 9 4 2 7 11 13 12 12 14 15 17 15 13 18 17 22 23 23 22 23 21 23 23 27 22
6 5 4 7 7 9 9 12 15 14 11 11 17 14 3 6 6 6 11 7 3 3 10 12 17 10 18 21 23 14 19 20 18 23 22 25 23 24 25 25 27 30 29 24
6 12 8 4 9 4 5 10 8 4 8 9 7 2 7 12 12 13 10 11 9 10 17 20 17 23 23 23 22 23 21 26 25 24 22 24 24 23 29 29 28 28 29 26
11 6 4 6 3 6 10 4 6 7 8 13 18 7 6 15 11 7 8 11 11 17 17 21 24 24 20 20 26 27 25 25 27 25 24 23 28 30 26 25 27 29 29 27
8 3 5 2 4 4 11 4 7 5 10 10 11 10 10 7 3 2 9 8 16 15 19 22 25 29 30 21 21 23 33 31 30 30 31 28 27 24 22 25 27 30 32 31
6 8 8 8 3 5 5 7 4 5 3 7 10 12 7 5 11 12 15 17 21 17 22 26 29 26 33 31 30 23 24 26 25 26 24 24 25 25 23 24 28 33 37 40
9 4 7 1 8 7 6 7 6 0 4 6 9 5 10 7 10 11 14 19 17 19 21 24 26 29 22 18 24 24 25 27 29 30 33 33 32 32 30 30 33 36 37 35
7 4 8 13 9 3 7 10 9 3 7 9 9 10 4 3 8 16 17 19 26 28 30 31 30 26 28 28 24 28 31 30 29 32 35 35 30 31 37 38 35 36 32 32
6 3 4 8 9 4 5 7 8 7 5 11 9 9 12 21 18 18 19 23 25 27 29 27 27 28 28 28 33 31 29 30 31 32 29 29 31 34 33 35 36 36 35 37
4 5 9 8 15 12 7 9 10 10 6 12 14 18 17 16 15 20 22 23 28 30 26 28 32 30 28 31 33 38 35 32 31 31 31 40 44 36 32 36 35 37 34 33
3 7 12 14 16 15 14 15 15 14 15 13 14 16 16 15 17 22 23 27 30 26 28 34 33 29 31 33 34 34 33 32 36 39 46 40 34 32 31 29 30 29 30 31
7 7 9 13 14 16 18 14 14 16 14 15 15 14 17 22 22 23 24 28 25 27 31 30 31 30 32 34 33 34 35 48 40 32 32 31 31 31 29 31 28 28 28 26
6 8 9 12 13 16 8 14 8 6 11 12 11 14 18 17 19 23 26 26 26 29 30 32 29 29 33 31 31 39 45 37 33 32 32 31 29 28 28 27 28 28 25 25
8 8 8 11 13 14 11 6 4 5 5 8 11 13 13 18 22 24 25 26 29 29 31 26 27 32 29 30 39 43 35 31 33 32 29 28 27 28 27 26 27 25 26 24
9 8 7 9 12 14 12 6 2 4 5 8 5 10 17 22 24 22 23 29 28 29 26 26 28 29 28 35 39 35 31 32 33 32 31 29 27 28 27 24 22 22 23 25
7 8 7 10 12 11 9 8 7 3 4 3 8 15 19 23 11 12 27 27 29 27 26 28 28 25 29 35 36 31 31 34 33 31 30 28 24 24 23 20 21 22 23 25
8 6 10 10 12 13 4 14 4 3 2 6 12 15 19 12 19 26 27 28 29 26 28 29 27 21 29 35 34 32 31 33 31 27 25 24 22 21 20 22 22 22 23 22
10 6 7 9 12 13 10 6 3 3 8 11 15 16 18 21 22 25 27 29 26 28 29 29 25 29 33 34 34 32 31 31 28 24 23 26 24 21 19 19 17 18 22 21
11 7 6 5 4 9 5 7 2 7 11 13 14 14 18 20 23 25 27 26 26 28 30 28 25 33 34 34 34 32 29 30 26 21 25 27 23 22 23 19 18 17 16 13
8 15 6 4 7 9 5 6 8 9 8 9 12 15 17 20 22 23 25 23 29 26 29 28 25 34 36 34 31 27 25 27 24 22 27 29 27 31 23 18 16 15 16 12
12 4 6 8 13 18 17 9 4 3 6 10 12 14 16 19 21 22 23 26 25 24 27 26 28 33 34 30 28 25 21 24 23 22 26 27 26 30 22 18 15 14 15 14
15 9 8 8 13 4 7 2 3 5 7 9 12 14 15 18 18 22 20 24 22 25 23 25 32 32 29 27 27 23 19 21 21 21 24 28 30 25 23 21 18 19 25 20
Wind_Direction
230 284 280 16 0 348 323 310 316 314 119 153 284 290 147 129 216 151 110 85 81 72 55 38 31 27 28 35 31 33 18 355 22 346 303 306 282 272 257 241 249 242 234 233
263 246 45 345 351 329 317 302 292 288 218 165 287 276 241 148 175 122 130 121 85 68 60 35 31 25 26 19 18 358 355 338 325 304 291 325 305 287 302 232 248 258 298 291
267 24 2 2 326 347 316 343 304 335 337 316 256 250 256 151 141 137 134 111 125 78 4 7 3 22 8 4 358 350 352 346 355 330 320 293 278 273 281 274 272 248 235 228
360 27 333 312 348 26 303 11 335 315 302 287 303 297 279 147 159 163 161 176 123 58 331 330 331 337 338 326 322 336 335 340 336 327 323 321 315 308 302 295 293 281 290 293
44 1 333 301 22 5 311 335 302 291 284 287 283 268 259 142 173 180 184 187 203 246 319 322 307 306 309 306 307 308 305 315 313 298 310 306 300 295 284 277 274 280 278 285
319 67 298 355 326 275 304 288 293 270 258 262 262 230 109 133 176 100 147 172 171 287 297 297 298 310 309 310 311 314 323 316 309 313 309 302 297 299 297 293 288 282 289 292
210 227 124 353 317 354 273 333 316 290 236 237 50 319 308 96 65 49 26 7 3 328 306 306 314 316 324 325 322 319 304 307 303 303 295 291 294 295 295 296 294 289 284 282
298 183 150 118 357 334 295 336 291 320 315 326 335 304 81 77 80 60 3 348 313 293 312 314 311 316 317 312 311 307 310 306 304 305 301 290 294 295 291 292 289 286 284 281
330 18 109 68 355 346 9 305 31 327 282 274 275 76 94 89 101 293 351 339 317 3 353 335 323 314 310 319 323 320 322 306 294 301 297 293 294 292 287 287 285 284 280 277
298 299 302 120 317 195 276 342 273 197 286 300 316 325 64 40 9 348 335 322 312 350 332 323 315 313 316 303 311 314 305 316 320 320 314 312 306 299 293 284 283 285 290 285
303 292 282 329 227 263 191 228 216 359 308 293 294 298 71 22 345 332 324 334 341 323 311 301 315 322 332 332 327 325 329 323 319 314 307 307 303 291 284 288 290 289 295 287
48 330 288 281 83 29 299 290 325 298 278 289 320 291 80 312 297 349 344 343 334 328 324 319 324 336 342 339 345 337 330 323 316 308 307 306 300 298 294 297 292 290 285 283
358 238 291 280 201 145 255 270 239 236 266 264 280 281 299 328 347 347 346 335 329 324 322 334 338 337 333 341 340 336 329 319 309 310 306 300 293 293 290 288 290 287 286 286
353 274 267 262 308 320 273 260 245 243 252 265 265 285 302 332 347 345 338 334 325 323 341 331 336 336 339 335 332 329 324 319 312 305 299 301 303 301 291 287 284 283 285 283
240 263 271 269 278 289 292 284 280 273 276 282 292 299 319 357 348 334 337 332 323 340 340 336 332 338 335 333 330 327 319 312 309 299 298 305 306 304 302 299 295 288 284 282
201 274 282 281 280 273 268 276 288 279 281 280 287 303 354 342 336 331 331 324 346 336 327 330 335 339 338 333 327 319 310 315 318 317 312 312 309 308 304 304 299 295 292 289
221 261 287 287 296 298 274 273 329 359 351 339 318 329 331 334 330 324 329 327 339 327 337 337 338 340 335 330 321 319 320 323 323 318 315 316 312 309 307 307 306 300 299 293
274 256 273 278 279 275 276 82 20 326 333 344 329 321 333 327 319 323 320 349 332 340 339 341 341 336 333 322 324 325 326 327 326 326 323 321 317 317 310 308 306 303 300 295
206 271 280 273 275 284 297 104 93 110 309 314 342 335 323 322 318 314 347 339 335 340 343 341 337 334 320 327 331 329 330 332 332 329 327 323 316 317 311 310 308 302 301 298
213 199 255 281 286 286 308 136 127 178 320 27 344 330 323 321 316 326 338 333 343 343 344 342 337 325 324 336 334 334 335 335 336 333 329 328 324 321 317 316 312 308 303 300
197 218 240 255 258 264 327 122 136 286 263 348 323 317 318 321 320 323 333 341 340 341 340 337 336 331 335 335 339 337 335 340 338 336 340 339 336 331 322 313 307 306 304 300
264 201 234 265 264 270 96 117 203 7 333 311 315 320 321 315 320 331 338 338 339 343 340 337 330 324 334 338 341 339 338 342 343 343 345 341 340 337 333 328 324 318 315 308
260 260 286 251 275 155 192 235 220 286 299 310 314 322 312 322 330 335 337 332 343 339 335 332 322 329 336 339 339 338 341 346 348 346 347 353 356 354 345 334 331 327 333 324
237 218 220 262 267 275 301 252 253 278 294 319 315 313 326 328 332 331 328 342 340 335 334 328 327 333 334 336 337 342 341 345 348 345 352 355 359 354 356 353 347 346 354 1
281 330 238 261 262 268 270 236 250 302 304 303 312 323 330 330 328 330 337 338 334 331 331 332 331 330 333 337 341 346 345 346 352 353 2 358 355 355 4 9 6 12 19 26
260 269 263 255 274 287 295 273 274 278 296 312 324 329 326 326 329 333 339 337 337 333 336 331 332 335 338 341 343 348 349 348 354 4 3 358 353 6 16 26 39 49 48 42